Weather in Malinovka

Russia / Tomsk District     56°05′16″N   83°36′13″E
temp.,
°C
wind,
m/s
gust,
m/s
humid.,
%
clouds,
%
prec.,
mm/h
press.,
hPa
HPBL,
m
23 april, fri
fri2301:00−2n37915 0.0 1045147
04:00−2nne37925 0.0 1045159
07:00−2nne37905 0.0 1045198
10:00+1nne46755 0.0 1046392
13:00+4nne576539 0.0 10451249
16:00+5n676812 0.1 10431002
19:00+4n587237 0.1 1043591
22:00+1nne38865 0.0 1043156
24 april, sat
sat2401:000nne38875 0.0 1042155
04:00−1nne37895 0.0 1040147
07:00−1nne37865 0.0 1039196
10:00+3nne46675 0.0 1038667
13:00+5n455916 0.0 10361283
16:00+6n445190 0.0 10341395
19:00+5nne345966 0.0 1033799
22:00+3nne117177 0.0 103410
25 april, sun
sun2501:00+1w11776 0.0 103310
04:000w228627 0.0 103338
07:000wnw22825 0.0 103362
10:00+6w23675 0.0 1033486
13:00+8w335478 0.1 10321562
16:00+9wnw334771 0.1 10311765
19:00+9wnw23515 0.1 10311254
22:00+6ese0164100 0.0 103110
26 april, mon
mon2601:00+5sse2268100 0.0 103018
04:00+3sse2275100 0.0 103036
07:00+3s2576100 0.0 1030103
10:00+7s4763100 0.0 1029463
13:00+10s5648100 0.0 10281388
16:00+12s574483 0.0 10261808
19:00+11s5851100 0.0 10241250
22:00+8sse61363100 0.0 1022402
27 april, tue
tue2701:00+7sse51366100 0.1 1019530
04:00+7ssw5127684 1.6 1017542
07:00+7wsw411785 1.8 1018441
10:00+9w69620 0.1 1020839
13:00+12w8124359 0.0 10192604
16:00+13w71038100 0.0 10192706
19:00+12w4845100 0.0 1019884
22:00+8sw2259100 0.0 101930